Location: Unspecified
(52.4292°N, 19.3359°E)
Time: 00:57:02
(UTC+02:00)

Vanguard 1 Rocket - Pass Details

Date: 27 May 2024
Orbit: 649 x 4221 km, 34.3° (Epoch: 13 June)

Event Time Altitude Azimuth Distance (km) Brightness Sun altitude
Rises 07:44:07 0° 215° (SW) 8,456 12.0 26.5°
Reaches altitude 10° 07:51:22 10° 207° (SSW) 7,355 11.8 27.6°
Maximum altitude 08:10:10 30° 157° (SSE) 4,897 11.7 30.5°
Drops below altitude 10° 08:23:14 10° 104° (ESE) 5,136 12.7 32.4°
Sets 08:27:04 0° 94° (E) 5,686 12.6 33.0°
